This demonstration page uses our WeatherBlox Daily Observations layout. Learn more.

39.08367, -84.50855

Hourly Observations for July 10, 2019

Temp ( °F °C ) Dew Point ( °F °C ) Humidity (%) Winds ( mph kmh ) Pressure ( in mb ) Visibility ( mi km ) Precip ( " mm )
12:53 am 00:53 Clear 72 22.2 70 21.1 94 94 Calm 29.97 1015 10 16.09344 0 0
1:53 am 01:53 Clear 71 21.7 69 20.6 94 94 Calm 29.97 1015 10 16.09344 0 0
2:53 am 02:53 Clear 71 21.7 69 20.6 94 94 Calm 29.97 1015 8 12.874752 0 0
3:53 am 03:53 Clear with Mist and Fog 69 20.6 69 20.6 100 100 Calm 29.97 1015 2.5 4.02336 0 0
4:07 am 04:07 Clear 70 21.1 69 20.6 97 97 Calm 29.97 1015 7 11.265408 0 0
4:53 am 04:53 Clear with Mist and Fog 70 21.1 69 20.6 97 97 Calm 29.97 1015 5 8.04672 0 0
5:22 am 05:22 Clear with Mist and Fog 69 20.6 68 20 96 96 Calm 29.97 1015 1.5 2.414016 0 0
5:38 am 05:38 Clear with Mist and Fog 70 21.1 69 20.6 97 97 Calm 29.97 1015 5 8.04672 0 0
5:53 am 05:53 Clear with Mist and Fog 69 20.6 68 20 96 96 Calm 29.97 1015 5 8.04672 0 0
6:43 am 06:43 Sunny with Mist and Fog 69 20.6 69 20.6 100 100 Calm 30 1016 0.75 1.207008 0 0
6:53 am 06:53 Sunny with Mist and Fog 70 21.1 69 20.6 97 97 Calm 30 1016 6 9.656064 0 0
7:53 am 07:53 Sunny with Mist and Fog 73 22.8 71 21.7 94 94 Calm 30 1016 6 9.656064 0 0
8:53 am 08:53 Sunny 77 25 73 22.8 88 88 Calm 30 1016 7 11.265408 0 0
9:53 am 09:53 Sunny 82 27.8 73 22.8 74 74 Calm 30 1016 10 16.09344 0 0
10:53 am 10:53 Mostly Sunny 86 30 73 22.8 65 65 Calm 30 1016 10 16.09344 0 0
11:53 am 11:53 Partly Cloudy 88 31.1 71 21.7 57 57 S 7 11 29.97 1015 10 16.09344 0 0
12:53 pm 12:53 Mostly Cloudy 89 31.7 71 21.7 55 55 SW 5 7 29.97 1015 10 16.09344 0 0
1:53 pm 13:53 Mostly Cloudy 86 30 70 21.1 59 59 SW 5 7 29.97 1015 10 16.09344 0 0
2:53 pm 14:53 Partly Cloudy 90 32.2 69 20.6 50 50 NNE 5 7 29.94 1014 10 16.09344 0 0
3:53 pm 15:53 Partly Cloudy 88 31.1 72 22.2 59 59 ENE 7 11 29.94 1014 10 16.09344 0 0
4:53 pm 16:53 Partly Cloudy 90 32.2 74 23.3 59 59 ESE 6 9 29.91 1013 10 16.09344 0 0
5:53 pm 17:53 Mostly Sunny 89 31.7 72 22.2 57 57 S 5 7 29.91 1013 10 16.09344 0 0
6:53 pm 18:53 Mostly Sunny 88 31.1 73 22.8 61 61 S 6 9 29.88 1012 10 16.09344 0 0
7:53 pm 19:53 Partly Cloudy 85 29.4 74 23.3 70 70 SSW 7 11 29.88 1012 10 16.09344 0 0
8:53 pm 20:53 Mostly Cloudy 78 25.6 75 23.9 90 90 SSW 7 11 29.88 1012 10 16.09344 0.001 0.001
9:53 pm 21:53 Mostly Cloudy 76 24.4 75 23.9 97 97 Calm 29.91 1013 10 16.09344 0 0
10:53 pm 22:53 Clear 75 23.9 75 23.9 100 100 Calm 29.91 1013 10 16.09344 0 0
11:53 pm 23:53 Mostly Clear with Mist and Fog 75 23.9 74 23.3 96 96 Calm 29.88 1012 3 4.828032 0 0

Powered by AerisWeather